TimeCST,TemperatureF,Dew PointF,Humidity,Sea Level PressureIn,VisibilityMPH,Wind Direction,Wind SpeedMPH,Gust SpeedMPH,PrecipitationIn,Events,Conditions,WindDirDegrees,DateUTC
12:15 AM,35.4,8.6,33,29.95,10.0,SSW,15.0,-,N/A,,Clear,210,2014-01-08 06:15:00
12:35 AM,33.8,8.8,35,29.93,10.0,SSW,11.5,-,N/A,,Clear,210,2014-01-08 06:35:00
12:55 AM,32.9,9.5,38,29.93,10.0,SSW,11.5,-,N/A,,Clear,200,2014-01-08 06:55:00
1:15 AM,31.1,9.7,41,29.91,10.0,SSW,9.2,-,N/A,,Clear,200,2014-01-08 07:15:00
1:35 AM,30.7,9.7,41,29.91,10.0,SSW,11.5,-,N/A,,Clear,200,2014-01-08 07:35:00
1:55 AM,29.7,10.4,45,29.90,10.0,SSW,11.5,-,N/A,,Clear,200,2014-01-08 07:55:00
2:15 AM,30.2,11.1,45,29.90,10.0,SW,10.4,-,N/A,,Clear,220,2014-01-08 08:15:00
2:35 AM,32.5,10.9,41,29.89,10.0,SW,11.5,-,N/A,,Clear,220,2014-01-08 08:35:00
2:55 AM,32.5,10.9,41,29.90,10.0,SW,9.2,-,N/A,,Clear,230,2014-01-08 08:55:00
3:15 AM,32.9,9.9,38,29.89,10.0,SSW,8.1,-,N/A,,Clear,210,2014-01-08 09:15:00
3:35 AM,30.9,10.4,42,29.89,10.0,SW,10.4,-,N/A,,Clear,230,2014-01-08 09:35:00
3:55 AM,31.8,10.2,41,29.89,10.0,WSW,6.9,-,N/A,,Clear,240,2014-01-08 09:55:00
4:15 AM,32.4,9.9,39,29.89,10.0,WSW,6.9,-,N/A,,Clear,250,2014-01-08 10:15:00
4:35 AM,30.0,9.7,43,29.89,10.0,West,6.9,-,N/A,,Clear,280,2014-01-08 10:35:00
4:55 AM,29.8,10.0,44,29.89,10.0,WSW,11.5,-,N/A,,Clear,250,2014-01-08 10:55:00
5:15 AM,32.4,9.5,39,29.90,10.0,WSW,11.5,-,N/A,,Clear,250,2014-01-08 11:15:00
5:35 AM,32.5,9.5,38,29.90,10.0,SW,9.2,-,N/A,,Clear,230,2014-01-08 11:35:00
5:55 AM,30.7,10.0,42,29.91,10.0,West,8.1,-,N/A,,Clear,260,2014-01-08 11:55:00
6:15 AM,27.0,9.7,48,29.91,10.0,West,6.9,-,N/A,,Clear,270,2014-01-08 12:15:00
6:35 AM,24.8,10.2,54,29.91,10.0,WNW,3.5,-,N/A,,Clear,290,2014-01-08 12:35:00
6:55 AM,24.8,10.4,54,29.92,10.0,West,6.9,-,N/A,,Clear,280,2014-01-08 12:55:00
7:15 AM,26.8,10.0,49,29.93,10.0,WNW,8.1,-,N/A,,Clear,290,2014-01-08 13:15:00
7:35 AM,32.0,11.1,42,29.94,10.0,NNW,5.8,-,N/A,,Clear,330,2014-01-08 13:35:00
7:55 AM,32.2,12.9,45,29.95,10.0,NW,11.5,-,N/A,,Clear,320,2014-01-08 13:55:00
8:15 AM,31.1,13.1,47,29.97,10.0,North,4.6,-,N/A,,Clear,350,2014-01-08 14:15:00
8:35 AM,32.0,14.4,48,29.98,10.0,NNW,8.1,-,N/A,,Clear,330,2014-01-08 14:35:00
8:55 AM,33.8,15.1,46,29.99,10.0,NNW,10.4,-,N/A,,Clear,330,2014-01-08 14:55:00
9:15 AM,37.8,16.9,43,30.00,10.0,NNW,11.5,-,N/A,,Clear,330,2014-01-08 15:15:00
9:35 AM,39.6,18.9,43,30.01,10.0,North,15.0,18.4,N/A,,Clear,350,2014-01-08 15:35:00
9:55 AM,41.0,21.2,45,30.02,10.0,North,24.2,29.9,N/A,,Clear,350,2014-01-08 15:55:00
10:15 AM,41.2,21.7,46,30.03,10.0,North,19.6,26.5,N/A,,Clear,350,2014-01-08 16:15:00
10:35 AM,41.4,22.1,46,30.04,10.0,North,17.3,24.2,N/A,,Clear,360,2014-01-08 16:35:00
10:55 AM,41.7,21.2,44,30.05,10.0,North,20.7,24.2,N/A,,Clear,350,2014-01-08 16:55:00
11:15 AM,41.0,21.4,46,30.05,10.0,North,19.6,24.2,N/A,,Clear,360,2014-01-08 17:15:00
11:35 AM,41.2,22.3,47,30.04,10.0,North,18.4,25.3,N/A,,Clear,360,2014-01-08 17:35:00
11:55 AM,41.4,22.3,47,30.04,10.0,North,18.4,23.0,N/A,,Clear,360,2014-01-08 17:55:00
12:15 PM,41.9,21.6,44,30.04,10.0,North,17.3,20.7,N/A,,Clear,360,2014-01-08 18:15:00
12:35 PM,42.6,21.7,44,30.04,10.0,North,15.0,21.9,N/A,,Clear,350,2014-01-08 18:35:00
12:55 PM,43.2,21.4,42,30.03,10.0,North,16.1,-,N/A,,Clear,360,2014-01-08 18:55:00
1:15 PM,43.0,21.9,43,30.03,10.0,North,17.3,21.9,N/A,,Clear,360,2014-01-08 19:15:00
1:35 PM,43.5,21.7,42,30.02,10.0,North,17.3,-,N/A,,Clear,350,2014-01-08 19:35:00
1:55 PM,43.9,20.8,40,30.02,10.0,North,15.0,24.2,N/A,,Clear,360,2014-01-08 19:55:00
2:15 PM,45.7,22.1,39,30.00,10.0,North,17.3,21.9,N/A,,Clear,360,2014-01-08 20:15:00
2:35 PM,44.2,21.4,40,30.02,10.0,North,-9999.0,-,N/A,,Clear,0,2014-01-08 20:35:00
2:55 PM,43.0,20.5,41,30.02,10.0,North,-9999.0,-,N/A,,Clear,0,2014-01-08 20:55:00
3:15 PM,43.5,21.4,41,30.02,10.0,North,-9999.0,-,N/A,,Clear,0,2014-01-08 21:15:00
3:35 PM,43.3,21.6,42,30.02,10.0,North,-9999.0,-,N/A,,Clear,0,2014-01-08 21:35:00
3:55 PM,43.2,21.4,42,30.03,10.0,North,-9999.0,-,N/A,,Clear,0,2014-01-08 21:55:00
4:15 PM,42.4,21.2,43,30.05,10.0,North,-9999.0,-,N/A,,Clear,0,2014-01-08 22:15:00
4:35 PM,41.4,21.2,45,30.04,10.0,North,-9999.0,-,N/A,,Clear,0,2014-01-08 22:35:00
4:55 PM,39.4,21.4,49,30.06,10.0,NNE,9.2,-,N/A,,Clear,30,2014-01-08 22:55:00
5:15 PM,37.8,21.6,52,30.07,10.0,NE,8.1,-,N/A,,Clear,40,2014-01-08 23:15:00
5:35 PM,36.5,21.2,54,30.08,10.0,NE,5.8,-,N/A,,Clear,50,2014-01-08 23:35:00
5:55 PM,34.9,21.2,57,30.08,10.0,NE,8.1,-,N/A,,Clear,40,2014-01-08 23:55:00
6:15 PM,33.8,21.2,60,30.09,10.0,NE,9.2,-,N/A,,Clear,40,2014-01-09 00:15:00
6:35 PM,32.5,21.2,63,30.09,10.0,NNE,8.1,-,N/A,,Clear,30,2014-01-09 00:35:00
6:55 PM,32.0,21.2,64,30.10,10.0,NE,8.1,-,N/A,,Clear,40,2014-01-09 00:55:00
7:15 PM,31.1,21.0,66,30.12,10.0,NE,6.9,-,N/A,,Clear,50,2014-01-09 01:15:00
7:35 PM,29.7,20.7,69,30.12,10.0,NE,6.9,-,N/A,,Clear,50,2014-01-09 01:35:00
7:55 PM,27.5,19.6,72,30.13,10.0,NE,6.9,-,N/A,,Clear,50,2014-01-09 01:55:00
8:15 PM,27.0,19.8,74,30.13,10.0,NNE,8.1,-,N/A,,Clear,30,2014-01-09 02:15:00
8:35 PM,25.5,18.9,76,30.14,10.0,NE,6.9,-,N/A,,Clear,40,2014-01-09 02:35:00
8:55 PM,24.1,18.1,78,30.15,10.0,NNE,5.8,-,N/A,,Clear,30,2014-01-09 02:55:00
9:15 PM,23.2,18.1,81,30.14,10.0,NNE,8.1,-,N/A,,Clear,30,2014-01-09 03:15:00
9:35 PM,22.8,18.0,82,30.14,10.0,NNE,6.9,-,N/A,,Clear,30,2014-01-09 03:35:00
9:55 PM,21.7,17.2,83,30.14,10.0,NNE,8.1,-,N/A,,Clear,20,2014-01-09 03:55:00
10:15 PM,22.1,18.1,85,30.14,10.0,NNE,3.5,-,N/A,,Clear,20,2014-01-09 04:15:00
10:35 PM,20.5,16.3,84,30.14,10.0,Calm,Calm,-,N/A,,Clear,0,2014-01-09 04:35:00
10:55 PM,19.9,16.0,85,30.14,10.0,NNE,4.6,-,N/A,,Clear,20,2014-01-09 04:55:00
11:15 PM,19.6,16.2,87,30.13,10.0,NNE,6.9,-,N/A,,Clear,30,2014-01-09 05:15:00
11:35 PM,20.3,16.9,87,30.14,10.0,Calm,Calm,-,N/A,,Clear,0,2014-01-09 05:35:00
11:55 PM,20.1,16.7,87,30.14,10.0,Calm,Calm,-,N/A,,Clear,0,2014-01-09 05:55:00